TimeCST,TemperatureF,Dew PointF,Humidity,Sea Level PressureIn,VisibilityMPH,Wind Direction,Wind SpeedMPH,Gust SpeedMPH,PrecipitationIn,Events,Conditions,WindDirDegrees,DateUTC
12:13 AM,39.2,35.6,87,29.87,10.0,East,20.7,24.2,N/A,,Overcast,90,2012-11-10 06:13:00
12:33 AM,39.2,35.6,87,29.84,10.0,East,23.0,27.6,N/A,,Overcast,90,2012-11-10 06:33:00
12:53 AM,39.2,37.4,93,29.84,10.0,East,21.9,25.3,N/A,,Overcast,90,2012-11-10 06:53:00
1:13 AM,39.2,37.4,93,29.82,7.0,East,21.9,28.8,N/A,,Overcast,90,2012-11-10 07:13:00
1:33 AM,39.2,37.4,93,29.81,3.0,East,21.9,26.5,N/A,,Overcast,90,2012-11-10 07:33:00
1:53 AM,39.2,37.4,93,29.80,5.0,East,23.0,-,N/A,,Overcast,90,2012-11-10 07:53:00
2:13 AM,39.2,37.4,93,29.79,7.0,East,20.7,26.5,N/A,,Overcast,90,2012-11-10 08:13:00
2:33 AM,39.2,37.4,93,29.77,7.0,East,21.9,26.5,N/A,,Overcast,90,2012-11-10 08:33:00
2:53 AM,39.2,37.4,93,29.77,4.0,East,20.7,-,N/A,,Overcast,90,2012-11-10 08:53:00
3:13 AM,39.2,37.4,93,29.75,2.5,East,18.4,32.2,N/A,,Overcast,90,2012-11-10 09:13:00
3:33 AM,39.2,37.4,93,29.74,2.5,East,20.7,26.5,N/A,,Overcast,90,2012-11-10 09:33:00
3:54 AM,39.2,39.2,100,29.73,2.5,East,20.7,26.5,N/A,,Overcast,80,2012-11-10 09:54:00
4:13 AM,39.2,39.2,100,29.72,2.5,East,21.9,26.5,N/A,Thunderstorm,Unknown,90,2012-11-10 10:13:00
4:33 AM,39.2,39.2,100,29.71,2.0,East,19.6,27.6,N/A,Rain,Light Rain,90,2012-11-10 10:33:00
4:54 AM,39.2,39.2,100,29.71,2.5,East,18.4,25.3,N/A,,Overcast,90,2012-11-10 10:54:00
5:13 AM,39.2,39.2,100,29.70,2.0,East,19.6,25.3,N/A,,Overcast,80,2012-11-10 11:13:00
5:33 AM,39.2,39.2,100,29.70,2.0,East,17.3,24.2,N/A,,Drizzle,80,2012-11-10 11:33:00
5:54 AM,39.2,39.2,100,29.69,2.0,East,17.3,24.2,N/A,,Light Drizzle,80,2012-11-10 11:54:00
6:13 AM,41.0,39.2,93,29.69,1.8,East,17.3,23.0,N/A,,Drizzle,80,2012-11-10 12:13:00
6:33 AM,41.0,39.2,93,29.69,2.0,East,15.0,-,N/A,,Drizzle,80,2012-11-10 12:33:00
6:53 AM,41.0,39.2,93,29.69,1.8,East,15.0,-,N/A,,Light Drizzle,90,2012-11-10 12:53:00
7:13 AM,41.0,41.0,100,29.67,1.5,East,18.4,-,N/A,,Drizzle,90,2012-11-10 13:13:00
7:33 AM,41.0,41.0,100,29.66,2.0,East,19.6,-,N/A,,Light Drizzle,90,2012-11-10 13:33:00
7:53 AM,42.8,41.0,93,29.66,2.0,East,17.3,-,N/A,,Drizzle,90,2012-11-10 13:53:00
8:13 AM,42.8,41.0,93,29.65,1.8,East,19.6,24.2,N/A,,Drizzle,90,2012-11-10 14:13:00
8:33 AM,42.8,41.0,93,29.64,1.2,East,18.4,26.5,N/A,,Light Drizzle,90,2012-11-10 14:33:00
8:53 AM,42.8,41.0,93,29.63,1.2,East,19.6,26.5,N/A,,Light Drizzle,90,2012-11-10 14:53:00
9:13 AM,42.8,41.0,93,29.62,1.5,East,19.6,24.2,N/A,,Light Drizzle,90,2012-11-10 15:13:00
9:34 AM,42.8,42.8,100,29.60,1.8,East,18.4,26.5,N/A,,Overcast,90,2012-11-10 15:34:00
9:53 AM,42.8,42.8,100,29.59,1.5,East,18.4,24.2,N/A,,Overcast,90,2012-11-10 15:53:00
10:13 AM,42.8,42.8,100,29.59,1.2,East,18.4,25.3,N/A,,Overcast,90,2012-11-10 16:13:00
10:34 AM,42.8,42.8,100,29.58,1.0,East,16.1,23.0,N/A,,Overcast,90,2012-11-10 16:34:00
10:53 AM,42.8,42.8,100,29.57,1.0,East,17.3,24.2,N/A,,Overcast,90,2012-11-10 16:53:00
11:13 AM,44.6,42.8,93,29.57,1.0,East,16.1,-,N/A,,Overcast,90,2012-11-10 17:13:00
11:34 AM,44.6,42.8,93,29.56,0.8,East,15.0,-,N/A,,Overcast,90,2012-11-10 17:34:00
11:53 AM,44.6,42.8,93,29.55,0.8,East,11.5,-,N/A,,Overcast,90,2012-11-10 17:53:00
12:13 PM,44.6,44.6,100,29.54,0.8,East,13.8,-,N/A,,Overcast,90,2012-11-10 18:13:00
12:34 PM,44.6,44.6,100,29.53,0.8,East,12.7,-,N/A,,Overcast,80,2012-11-10 18:34:00
12:53 PM,44.6,44.6,100,29.52,0.5,East,13.8,-,N/A,Fog,Fog,80,2012-11-10 18:53:00
1:13 PM,44.6,44.6,100,29.52,0.5,East,12.7,-,N/A,Fog,Fog,80,2012-11-10 19:13:00
1:34 PM,44.6,44.6,100,29.51,0.5,East,12.7,17.3,N/A,Fog,Fog,80,2012-11-10 19:34:00
1:53 PM,46.4,44.6,93,29.50,0.8,East,13.8,-,N/A,,Overcast,90,2012-11-10 19:53:00
2:13 PM,46.4,46.4,100,29.49,0.2,East,12.7,-,N/A,Fog,Fog,80,2012-11-10 20:13:00
2:33 PM,46.4,46.4,100,29.49,0.2,East,11.5,-,N/A,Fog,Fog,80,2012-11-10 20:33:00
2:53 PM,46.4,46.4,100,29.48,0.2,East,12.7,-,N/A,Fog,Fog,80,2012-11-10 20:53:00
3:13 PM,46.4,46.4,100,29.47,0.2,ENE,11.5,-,N/A,Fog,Fog,70,2012-11-10 21:13:00
3:33 PM,46.4,46.4,100,29.48,0.2,ENE,9.2,-,N/A,Fog,Fog,70,2012-11-10 21:33:00
3:53 PM,46.4,46.4,100,29.48,0.2,ENE,8.1,-,N/A,Fog,Fog,70,2012-11-10 21:53:00
4:14 PM,46.4,46.4,100,29.49,0.2,East,10.4,-,N/A,Fog,Fog,80,2012-11-10 22:14:00
4:33 PM,46.4,46.4,100,29.49,0.2,East,10.4,-,N/A,Fog,Fog,80,2012-11-10 22:33:00
4:53 PM,46.4,46.4,100,29.49,0.2,East,9.2,-,N/A,Fog,Fog,80,2012-11-10 22:53:00
5:14 PM,46.4,46.4,100,29.50,0.2,East,8.1,-,N/A,Fog,Fog,80,2012-11-10 23:14:00
5:33 PM,46.4,46.4,100,29.51,0.2,East,4.6,-,N/A,Fog,Fog,80,2012-11-10 23:33:00
5:53 PM,46.4,46.4,100,29.49,0.2,ENE,3.5,-,N/A,Fog,Fog,60,2012-11-10 23:53:00
6:14 PM,46.4,46.4,100,29.48,0.2,East,4.6,-,N/A,Fog,Fog,80,2012-11-11 00:14:00
6:33 PM,46.4,46.4,100,29.47,0.2,East,3.5,-,N/A,Fog,Fog,80,2012-11-11 00:33:00
6:53 PM,48.2,46.4,93,29.45,0.2,East,3.5,-,N/A,Fog,Fog,100,2012-11-11 00:53:00
7:14 PM,48.2,48.2,100,29.45,0.2,Calm,Calm,-,N/A,Fog-Thunderstorm,Fog,0,2012-11-11 01:14:00
7:33 PM,48.2,46.4,93,29.44,0.2,East,3.5,-,N/A,Fog-Thunderstorm,Fog,100,2012-11-11 01:33:00
7:53 PM,48.2,48.2,100,29.44,0.5,Calm,Calm,-,0.03,Rain-Thunderstorm,Light Thunderstorms and Rain,0,2012-11-11 01:53:00
8:13 PM,48.2,48.2,100,29.50,0.8,SSW,13.8,19.6,0.15,Rain-Thunderstorm,Heavy Thunderstorms and Rain,210,2012-11-11 02:13:00
8:34 PM,48.2,48.2,100,29.46,2.0,SSE,3.5,-,0.25,Rain,Rain,150,2012-11-11 02:34:00
8:53 PM,46.4,46.4,100,29.45,1.8,ESE,9.2,-,0.35,Rain-Thunderstorm,Thunderstorms and Rain,110,2012-11-11 02:53:00
9:13 PM,46.4,46.4,100,29.46,2.0,SSE,8.1,-,0.04,Rain-Thunderstorm,Rain,150,2012-11-11 03:13:00
9:34 PM,46.4,46.4,100,29.47,2.0,South,9.2,-,0.04,Rain,Rain,190,2012-11-11 03:34:00
10:13 PM,46.4,46.4,100,29.46,2.0,SSW,11.5,-,0.01,Rain,Light Rain,210,2012-11-11 04:13:00
10:34 PM,44.6,44.6,100,29.47,0.2,West,18.4,21.9,0.01,,Overcast,260,2012-11-11 04:34:00
10:53 PM,42.8,42.8,100,29.48,0.5,West,20.7,24.2,0.01,,Overcast,260,2012-11-11 04:53:00
11:13 PM,39.2,39.2,100,29.48,3.0,West,21.9,26.5,N/A,,Overcast,280,2012-11-11 05:13:00
11:34 PM,37.4,37.4,100,29.51,5.0,West,23.0,27.6,N/A,,Overcast,280,2012-11-11 05:34:00
11:53 PM,35.6,35.6,100,29.52,4.0,West,19.6,27.6,N/A,,Overcast,280,2012-11-11 05:53:00